Kelowna, British Columbia

5:20 AM PDT on June 29, 2017 (GMT -0700)
Kelowna

Weather History for CYLW - October, 2011

Change the Weather History Date:

Tuesday, October 11, 2011

  Actual Average Record
Temperature  
Mean Temperature 54 °F -  
Max Temperature 64 °F 48 °F 66 °F (2015)
Min Temperature 45 °F 30 °F 21 °F (2008)
Degree Days  
Heating Degree Days 10    
Growing Degree Days 4 (Base 50)    
Moisture  
Dew Point 47 °F    
Average Humidity 82    
Maximum Humidity 100    
Minimum Humidity 42    
Precipitation  
Precipitation 0.01 in 0.03 in - ()
Sea Level Pressure  
Sea Level Pressure 29.67 in    
Wind  
Wind Speed 3 mph ()    
Max Wind Speed 9 mph    
Max Gust Speed -    
Visibility 8.9 miles    
Events Rain    
Averages and records for this station are not official NWS values.
T = Trace of Precipitation, MM = Missing Value Source: Averaged Metar Reports

Daily Weather History Graph

Daily Weather History Graph

Search for Another Location

Airport or City:

Trip Planner

Search our weather history database for the weather conditions in past years. The results will help you decide how hot, cold, wet, or windy it might be!

Date:

Astronomy

Oct. 11, 2011 Rise Set
Actual Time 7:12 AM PDT 6:14 PM PDT
Civil Twilight 6:40 AM PDT 6:47 PM PDT
Nautical Twilight 6:03 AM PDT 7:24 PM PDT
Astronomical Twilight 5:25 AM PDT 8:02 PM PDT
Moon 5:42 PM PDT (10/11) 6:59 AM PDT (10/11)
Length of Visible Light 12h 06m
Length of Day
11h 02m
Full, 100% of the Moon is Illuminated
Oct 11
Full
Oct 11
Full
Oct 19
Last Quarter
Oct 26
New
Nov 2
First Quarter

Hourly Weather History & Observations

Time (PDT) Temp. Windchill Dew Point Humidity Pressure Visibility Wind Dir Wind Speed Gust Speed Precip Events Conditions
12:00 AM 50.0 °F - 50.0 °F 100% 29.53 in 9.0 mi North 3.5 mph - N/A   Overcast
1:00 AM 50.0 °F - 50.0 °F 100% 29.53 in 9.0 mi NE 3.5 mph - N/A   Overcast
2:00 AM 48.2 °F - 46.4 °F 93% 29.53 in 9.0 mi ENE 3.5 mph - N/A   Mostly Cloudy
2:55 AM 46.4 °F - 46.4 °F 100% 29.54 in 9.0 mi Calm Calm - N/A   Overcast
3:00 AM 46.4 °F - 46.4 °F 100% 29.54 in 9.0 mi Calm Calm - N/A   Overcast
4:00 AM 46.4 °F 45.2 °F 46.4 °F 100% 29.55 in 9.0 mi North 3.5 mph - N/A   Overcast
4:30 AM 48.2 °F - 48.2 °F 100% 29.55 in 9.0 mi NE 4.6 mph - N/A Rain Light Rain
4:48 AM 48.2 °F - 48.2 °F 100% 29.55 in 9.0 mi WNW 3.5 mph - N/A   Overcast
4:55 AM 48.2 °F - 48.2 °F 100% 29.55 in 9.0 mi Variable 2.3 mph - N/A Rain Light Rain
5:00 AM 48 °F - 48 °F 98% 29.55 in 10 mi North 3.5 mph - - Rain Light Rain
5:00 AM 48.2 °F - 48.2 °F 100% 29.55 in 9.0 mi NE 4.6 mph - N/A Rain Light Rain
5:08 AM 48.2 °F - 48.2 °F 100% 29.55 in 9.0 mi NE 4.6 mph - N/A   Overcast
6:00 AM 48.2 °F - 46.4 °F 93% 29.55 in 9.0 mi NE 4.6 mph - N/A   Overcast
7:00 AM 48.2 °F - 46.4 °F 93% 29.55 in 9.0 mi NNE 4.6 mph - N/A   Overcast
8:00 AM 48.2 °F - 46.4 °F 93% 29.58 in 9.0 mi NE 3.5 mph - N/A   Overcast
8:30 AM 50.0 °F - 48.2 °F 94% 29.59 in 9.0 mi NNE 2.3 mph - N/A Rain Light Rain
9:00 AM 50.0 °F - 48.2 °F 94% 29.59 in 9.0 mi NNW 4.6 mph - N/A Rain Light Rain
9:11 AM 51.8 °F - 50.0 °F 94% 29.59 in 9.0 mi NNW 5.8 mph - N/A   Overcast
9:16 AM 51.8 °F - 50.0 °F 94% 29.60 in 9.0 mi North 4.6 mph - N/A Rain Light Rain
9:37 AM 51.8 °F - 50.0 °F 94% 29.60 in 9.0 mi Variable 2.3 mph - N/A   Overcast
10:00 AM 51.8 °F - 50.0 °F 94% 29.61 in 9.0 mi NNW 3.5 mph - N/A   Overcast
11:00 AM 55 °F - 52 °F 88% 29.65 in 10 mi ENE 2.3 mph - -  
11:00 AM 55.4 °F - 51.8 °F 88% 29.64 in 9.0 mi ENE 3.5 mph - N/A   Mostly Cloudy
11:30 AM 57.2 °F - 48.2 °F 72% 29.65 in 9.0 mi South 5.8 mph - N/A   Mostly Cloudy
12:00 PM 57.2 °F - 48.2 °F 72% 29.67 in 9.0 mi SSE 5.8 mph - N/A   Overcast
1:00 PM 60.8 °F - 46.4 °F 59% 29.68 in 9.0 mi SSW 3.5 mph - N/A   Scattered Clouds
2:00 PM 60.8 °F - 42.8 °F 52% 29.70 in 9.0 mi SSW 9.2 mph - N/A   Mostly Cloudy
3:00 PM 62.6 °F - 39.2 °F 42% 29.71 in 9.0 mi SE 5.8 mph - N/A   Mostly Cloudy
4:00 PM 62.6 °F - 44.6 °F 52% 29.73 in 9.0 mi South 4.6 mph - N/A   Mostly Cloudy
5:00 PM 61 °F - 46 °F 46% 29.75 in 10 mi SE 4.6 mph - -  
5:00 PM 60.8 °F - 46.4 °F 59% 29.75 in 9.0 mi SE 4.6 mph - N/A   Scattered Clouds
5:56 PM 57.2 °F - 44.6 °F 63% 29.77 in 5.0 mi Variable 2.3 mph - N/A   Haze
6:00 PM 59.0 °F - 44.6 °F 59% 29.77 in 4.0 mi SE 3.5 mph - N/A   Haze
6:06 PM 59.0 °F - 44.6 °F 59% 29.78 in 8.0 mi SE 4.6 mph - N/A   Mostly Cloudy
7:00 PM 57.2 °F - 42.8 °F 59% 29.81 in 9.0 mi SSE 3.5 mph - N/A   Overcast
8:00 PM 57.2 °F - 42.8 °F 59% 29.83 in 9.0 mi SE 8.1 mph - N/A   Overcast
9:00 PM 53.6 °F - 42.8 °F 67% 29.85 in 9.0 mi SW 3.5 mph - N/A   Overcast
10:00 PM 50.0 °F - 44.6 °F 82% 29.88 in 9.0 mi Variable 2.3 mph - N/A   Overcast
10:09 PM 50.0 °F - 44.6 °F 82% 29.88 in 9.0 mi South 3.5 mph - N/A Rain Light Rain
10:27 PM 51.8 °F - 44.6 °F 76% 29.88 in 9.0 mi Variable 2.3 mph - N/A   Overcast
11:00 PM 50 °F - 45 °F 78% 29.90 in 10 mi NNW 3.5 mph - -   Overcast
11:00 PM 50.0 °F - 44.6 °F 82% 29.90 in 9.0 mi Variable 2.3 mph - N/A   Overcast